Regional Weather Roundup
Issued by NWS

Home | Current Version | Previous Version | Graphics & Text | Print | Product List | Glossary On
Versions: 1 2 3 4 5 6 7 8 9 10 11 12 13 14 15 16 17 18 19 20 21 22 23 24 25 26 27 28 29 30 31 32 33 34 35 36 37 38 39 40 41 42 43 44 45 46 47 48 49 50
000
ASUS44 KMEG 031700
RWRTN
TENNESSEE HOURLY STATE WEATHER ROUNDUP
NATIONAL WEATHER SERVICE MEMPHIS TN
1200 PM CDT THU SEP 03 2015

TNZ002-004-019-021-049-052-054-088>092-031800-
WEST TENNESSEE

CITY           SKY/WX    TMP DP  RH WIND       PRES   REMARKS
MEMPHIS INTL   MOSUNNY   88  69  53 NE7       30.02F HX  92
NWS MEMPHIS      N/A     88 N/A N/A MISG        N/A
JACKSON        MOSUNNY   89  70  53 CALM      30.02F HX  94
DYERSBURG      SUNNY     88  72  58 CALM      30.02F HX  94
UNION CITY     SUNNY     88  72  58 N5        30.01F HX  94
PARIS          MOSUNNY   88  70  55 NE7       30.03F HX  92
LEXINGTON      SUNNY     88  70  55 E3        30.01F HX  92
$$

TNZ008-025-027-028-033-062-065-066-031800-
NORTH MIDDLE TENNESSEE

CITY           SKY/WX    TMP DP  RH WIND       PRES   REMARKS
NASHVILLE      MOSUNNY   91  64  40 VRB3      30.02F HX  92
CLARKSVILLE    MOSUNNY   90  65  43 VRB5      30.02F HX  92
COOKEVILLE     MOSUNNY   86  68  54 N5        30.04F
CROSSVILLE     MOSUNNY   84  64  50 VRB3      30.10F
$$

TNZ061-075-076-078-094-096-097-031800-
SOUTH MIDDLE TENNESSEE

CITY           SKY/WX    TMP DP  RH WIND       PRES   REMARKS
FAYETTEVILLE   MOSUNNY   84  68  58 E3        30.04F
TULLAHOMA      SUNNY     88  66  48 VRB5      30.05F HX  90
WINCHESTER     MOSUNNY   88  68  51 N6        30.04S HX  91
MCMINNVILLE    SUNNY     88  70  55 NE7       30.05F HX  92
COLUMBIA       SUNNY     88  72  58 CALM      30.01F HX  94
SHELBYVILLE    SUNNY     90  70  51 N5        30.04F HX  95
$$

TNZ017-018-042-046-047-031800-
NORTHEAST TENNESSEE

CITY           SKY/WX    TMP DP  RH WIND       PRES   REMARKS
TRI CITIES     PTSUNNY   84  66  54 VRB3      30.07F
ELIZABETHTON   MOSUNNY   81  64  57 CALM      30.07F
$$

TNZ012-013-036-069-073-074-031800-
CENTRAL EAST TENNESSEE

CITY           SKY/WX    TMP DP  RH WIND       PRES   REMARKS
KNOXVILLE      MOSUNNY   88  65  46 E8        30.03F HX  90
OAK RIDGE      SUNNY     88  66  48 E5        30.05F HX  90
GATLINBURG       N/A     88  63  42 NE10      30.03F
$$

TNZ083-085-099-031800-
SOUTHEAST TENNESSEE

CITY           SKY/WX    TMP DP  RH WIND       PRES   REMARKS
CHATTANOOGA    MOSUNNY   88  68  51 N12       30.02F HX  91
$$

SKY/WX REPORTED AS FAIR MEANS FEW OR NO CLOUDS BELOW
12 THOUSAND FEET.



USA.gov is the U.S. government's official web portal to all federal, state and local government web resources and services.